| time (UTC) | temp F | wind direction | speed MPH | gust MPH | rain 1hr in | rain 24hr in | rain mn in | humidity % | barometer mb |
| 20260507021634 | 61 | 234 | 4.0 | 10.0 | 0.00 | 0.00 | 0.00 | 51 | 1010.8 |
| 20260507020105 | 61 | 266 | 2.0 | 8.0 | 0.00 | 0.00 | 0.00 | 51 | 1010.8 |
| 20260507014522 | 61 | 230 | 4.0 | 10.0 | 0.00 | 0.00 | 0.00 | 51 | 1010.8 |
| 20260507013005 | 60 | 271 | 2.0 | 8.0 | 0.00 | 0.00 | 0.00 | 52 | 1010.8 |
| 20260507011600 | 59 | 181 | 1.0 | 4.0 | 0.00 | 0.00 | 0.00 | 54 | 1010.7 |
| 20260507010050 | 61 | 288 | 0.0 | 3.0 | 0.00 | 0.00 | 0.00 | 52 | 1010.6 |
| 20260507004538 | 62 | 263 | 2.0 | 4.0 | 0.00 | 0.00 | 0.00 | 50 | 1010.4 |
| 20260507003015 | 62 | 272 | 2.0 | 5.0 | 0.00 | 0.00 | 0.00 | 49 | 1010.5 |
| 20260507001607 | 62 | 295 | 1.0 | 5.0 | 0.00 | 0.00 | 0.00 | 49 | 1010.6 |
| 20260507000111 | 62 | 249 | 1.0 | 5.0 | 0.00 | 0.00 | 0.00 | 49 | 1010.7 |
| 20260506234543 | 62 | 258 | 1.0 | 5.0 | 0.00 | 0.00 | 0.00 | 49 | 1010.9 |
| 20260506233020 | 62 | 276 | 1.0 | 4.0 | 0.00 | 0.00 | 0.00 | 49 | 1010.9 |
| 20260506231546 | 62 | 279 | 1.0 | 4.0 | 0.00 | 0.00 | 0.00 | 48 | 1011.0 |
| 20260506230031 | 62 | 258 | 2.0 | 7.0 | 0.00 | 0.00 | 0.00 | 48 | 1011.0 |
| 20260506224519 | 61 | 218 | 3.0 | 7.0 | 0.00 | 0.00 | 0.00 | 50 | 1011.0 |
| 20260506223006 | 57 | 295 | 0.0 | 2.0 | 0.00 | 0.00 | 0.00 | 57 | 1011.0 |
| 20260506221604 | 57 | 300 | 0.0 | 1.0 | 0.00 | 0.00 | 0.00 | 57 | 1010.9 |
| 20260506220031 | 59 | 300 | 0.0 | 1.0 | 0.00 | 0.00 | 0.00 | 54 | 1010.8 |
| 20260506214513 | 61 | 300 | 0.0 | 1.0 | 0.00 | 0.00 | 0.00 | 51 | 1010.9 |
| 20260506213058 | 62 | 267 | 0.0 | 3.0 | 0.00 | 0.00 | 0.00 | 49 | 1011.0 |
| 20260506211548 | 62 | 295 | 0.0 | 3.0 | 0.00 | 0.00 | 0.00 | 48 | 1011.0 |
| 20260506210033 | 63 | 285 | 0.0 | 3.0 | 0.00 | 0.00 | 0.00 | 47 | 1011.0 |
| 20260506204516 | 64 | 281 | 1.0 | 9.0 | 0.00 | 0.00 | 0.00 | 47 | 1010.8 |
| 20260506203029 | 63 | 269 | 1.0 | 7.0 | 0.00 | 0.00 | 0.00 | 47 | 1010.7 |
| 20260506201552 | 63 | 258 | 1.0 | 5.0 | 0.00 | 0.00 | 0.00 | 48 | 1010.7 |
| 20260506200031 | 62 | 268 | 1.0 | 4.0 | 0.00 | 0.00 | 0.00 | 50 | 1010.8 |
| 20260506194507 | 62 | 265 | 1.0 | 4.0 | 0.00 | 0.00 | 0.00 | 48 | 1010.7 |
| 20260506193048 | 62 | 322 | 1.0 | 5.0 | 0.00 | 0.00 | 0.00 | 49 | 1010.6 |
| 20260506191513 | 62 | 284 | 0.0 | 3.0 | 0.00 | 0.00 | 0.00 | 49 | 1010.7 |
| 20260506190037 | 62 | 115 | 1.0 | 6.0 | 0.00 | 0.00 | 0.00 | 51 | 1010.7 |
| 20260506184525 | 62 | 299 | 0.0 | 1.0 | 0.00 | 0.00 | 0.00 | 50 | 1010.7 |
| 20260506183013 | 62 | 243 | 1.0 | 6.0 | 0.00 | 0.00 | 0.00 | 50 | 1010.4 |
| 20260506181510 | 61 | 319 | 0.0 | 0.0 | 0.00 | 0.00 | 0.00 | 53 | 1010.4 |
| 20260506180054 | 62 | 319 | 0.0 | 0.0 | 0.00 | 0.00 | 0.00 | 51 | 1010.4 |
| 20260506174538 | 62 | 342 | 0.0 | 1.0 | 0.00 | 0.00 | 0.00 | 51 | 1010.3 |
| 20260506173047 | 64 | 317 | 0.0 | 0.0 | 0.00 | 0.00 | 0.00 | 49 | 1010.1 |
| 20260506171516 | 65 | 317 | 0.0 | 4.0 | 0.00 | 0.00 | 0.00 | 47 | 1010.2 |
| 20260506170006 | 66 | 268 | 0.0 | 3.0 | 0.00 | 0.00 | 0.00 | 43 | 1010.3 |
| 20260506164554 | 67 | 293 | 0.0 | 3.0 | 0.00 | 0.00 | 0.00 | 41 | 1010.4 |
| 20260506163053 | 68 | 282 | 0.0 | 5.0 | 0.00 | 0.00 | 0.00 | 40 | 1010.5 |
| 20260506161532 | 68 | 230 | 5.0 | 9.0 | 0.00 | 0.00 | 0.00 | 38 | 1010.7 |
| 20260506160022 | 68 | 205 | 5.0 | 13.0 | 0.00 | 0.00 | 0.00 | 37 | 1010.6 |
| 20260506154511 | 70 | 276 | 4.0 | 10.0 | 0.00 | 0.00 | 0.00 | 36 | 1010.6 |
| 20260506153001 | 69 | 217 | 6.0 | 11.0 | 0.00 | 0.00 | 0.00 | 36 | 1010.8 |
| 20260506151552 | 70 | 217 | 5.0 | 12.0 | 0.00 | 0.00 | 0.00 | 35 | 1010.5 |
| 20260506150042 | 72 | 249 | 4.0 | 14.0 | 0.00 | 0.00 | 0.00 | 34 | 1010.7 |
| 20260506144514 | 71 | 252 | 2.0 | 5.0 | 0.00 | 0.00 | 0.00 | 35 | 1010.7 |
| 20260506143002 | 70 | 259 | 3.0 | 8.0 | 0.00 | 0.00 | 0.00 | 33 | 1010.7 |
| 20260506141555 | 70 | 11 | 2.0 | 12.0 | 0.00 | 0.00 | 0.00 | 32 | 1010.9 |
| 20260506140040 | 71 | 306 | 5.0 | 14.0 | 0.00 | 0.00 | 0.00 | 30 | 1010.9 |
| 20260506134529 | 73 | 298 | 4.0 | 11.0 | 0.00 | 0.00 | 0.00 | 29 | 1010.8 |
| 20260506133019 | 74 | 108 | 2.0 | 9.0 | 0.00 | 0.00 | 0.00 | 34 | 1010.9 |
| 20260506131509 | 73 | 117 | 4.0 | 10.0 | 0.00 | 0.00 | 0.00 | 34 | 1010.9 |
| 20260506130120 | 71 | 181 | 7.0 | 17.0 | 0.00 | 0.00 | 0.00 | 35 | 1010.9 |
| 20260506124547 | 71 | 281 | 6.0 | 13.0 | 0.00 | 0.00 | 0.00 | 35 | 1010.9 |
| 20260506123034 | 70 | 210 | 6.0 | 12.0 | 0.00 | 0.00 | 0.00 | 39 | 1011.3 |
| 20260506121523 | 70 | 233 | 3.0 | 10.0 | 0.00 | 0.00 | 0.00 | 40 | 1011.3 |
| 20260506120001 | 70 | 239 | 4.0 | 13.0 | 0.00 | 0.00 | 0.00 | 40 | 1011.4 |
| 20260506114550 | 70 | 292 | 5.0 | 12.0 | 0.00 | 0.00 | 0.00 | 37 | 1011.4 |
| 20260506113038 | 71 | 236 | 5.0 | 12.0 | 0.00 | 0.00 | 0.00 | 40 | 1011.5 |
| 20260506111528 | 70 | 26 | 3.0 | 12.0 | 0.00 | 0.00 | 0.00 | 38 | 1011.7 |
| 20260506110013 | 71 | 107 | 4.0 | 11.0 | 0.00 | 0.00 | 0.00 | 40 | 1011.6 |
| 20260506104508 | 70 | 120 | 4.0 | 13.0 | 0.00 | 0.00 | 0.00 | 39 | 1011.9 |
| 20260506103054 | 70 | 189 | 3.0 | 13.0 | 0.00 | 0.00 | 0.00 | 43 | 1012.2 |
| 20260506101548 | 68 | 127 | 1.0 | 7.0 | 0.00 | 0.00 | 0.00 | 46 | 1012.1 |
| 20260506100020 | 67 | 281 | 3.0 | 8.0 | 0.00 | 0.00 | 0.00 | 43 | 1012.4 |
| 20260506094510 | 68 | 75 | 3.0 | 10.0 | 0.00 | 0.00 | 0.00 | 46 | 1012.4 |
| 20260506093101 | 67 | 255 | 3.0 | 9.0 | 0.00 | 0.00 | 0.00 | 44 | 1012.5 |
| 20260506091549 | 67 | 79 | 3.0 | 9.0 | 0.00 | 0.00 | 0.00 | 45 | 1012.5 |
| 20260506090045 | 64 | 259 | 4.0 | 12.0 | 0.00 | 0.00 | 0.00 | 47 | 1012.5 |
| 20260506084530 | 63 | 239 | 2.0 | 12.0 | 0.00 | 0.00 | 0.00 | 51 | 1012.3 |
| 20260506083032 | 63 | 277 | 6.0 | 14.0 | 0.00 | 0.00 | 0.00 | 48 | 1012.1 |
| 20260506081508 | 62 | 233 | 6.0 | 12.0 | 0.00 | 0.00 | 0.00 | 48 | 1011.9 |
| 20260506073031 | 60 | 188 | 3.0 | 11.0 | 0.00 | 0.00 | 0.00 | 49 | 1011.5 |
| 20260506071522 | 60 | 82 | 3.0 | 11.0 | 0.00 | 0.00 | 0.00 | 47 | 1011.7 |
| 20260506061533 | 63 | 52 | 1.0 | 5.0 | 0.00 | 0.00 | 0.00 | 46 | 1011.3 |
| 20260506044613 | 55 | 71 | 1.0 | 3.0 | 0.00 | 0.00 | 0.00 | 53 | 1011.0 |
| 20260506043056 | 49 | 358 | 0.0 | 0.0 | 0.00 | 0.00 | 0.00 | 63 | 1011.0 |
| 20260506041546 | 47 | 358 | 0.0 | 0.0 | 0.00 | 0.00 | 0.00 | 62 | 1011.0 |
| 20260506040044 | 47 | 358 | 0.0 | 0.0 | 0.00 | 0.00 | 0.00 | 61 | 1011.1 |
| 20260506034522 | 47 | 358 | 0.0 | 0.0 | 0.00 | 0.00 | 0.00 | 60 | 1010.9 |
| 20260506033013 | 48 | 358 | 0.0 | 0.0 | 0.00 | 0.00 | 0.00 | 60 | 1010.8 |
| 20260506031602 | 47 | 358 | 0.0 | 0.0 | 0.00 | 0.00 | 0.00 | 61 | 1010.8 |
| 20260506030052 | 47 | 358 | 0.0 | 0.0 | 0.00 | 0.00 | 0.00 | 61 | 1010.7 |
| 20260506024546 | 48 | 358 | 0.0 | 0.0 | 0.00 | 0.00 | 0.00 | 60 | 1010.6 |
| 20260506023032 | 48 | 358 | 0.0 | 0.0 | 0.00 | 0.00 | 0.00 | 57 | 1010.6 |